Wind_Speed
1 1 1 2 2 2 2 2 2 3 3 3 3 3 3 3 4 4 4 4 4 4 3 4 4 4 4 4 4 5 5 5 6 6 6 7 7 8 8 9 8 8 8
2 2 2 2 3 3 3 3 3 3 3 3 3 3 3 3 3 4 5 4 4 5 5 4 4 5 4 5 5 5 5 6 7 7 7 7 7 8 8 8 8 9 9
3 2 2 2 3 3 3 3 3 3 3 3 3 4 4 4 4 4 5 5 5 5 6 5 6 6 6 5 6 5 6 6 7 7 6 7 7 8 9 9 9 9 9
3 3 3 3 4 4 4 3 3 3 3 3 3 4 4 4 4 4 5 5 4 5 6 6 6 6 6 7 7 7 6 7 7 7 7 8 8 8 9 9 9 10 10
4 4 4 4 4 4 4 4 3 3 3 3 3 4 4 5 5 5 5 5 5 5 5 6 7 7 7 8 8 8 8 8 9 9 9 9 9 9 10 10 11 11 11
4 5 5 5 5 5 4 4 4 4 4 4 4 4 4 5 5 5 5 5 5 6 6 7 7 8 8 9 9 9 9 9 9 10 10 10 10 10 11 11 12 11 11
4 5 5 5 5 5 5 4 4 4 4 4 5 5 5 5 5 5 6 6 6 6 7 8 8 8 9 9 10 10 10 10 10 10 11 11 10 11 11 11 11 11 11
5 5 6 5 5 4 5 5 4 4 4 4 5 5 6 6 6 6 7 7 8 8 8 9 9 9 9 10 10 11 11 11 11 11 11 11 11 11 11 11 11 11 11
5 5 5 5 5 5 5 5 5 5 5 5 5 6 6 6 7 7 7 8 8 8 9 9 10 10 10 10 11 11 11 11 11 11 12 11 11 11 11 12 12 12 12
5 5 5 5 5 5 5 5 6 6 5 6 6 6 7 7 7 7 8 8 9 9 9 10 10 10 11 11 11 11 12 11 11 12 12 12 12 12 12 12 12 13 12
6 6 6 6 6 5 5 5 6 6 6 6 6 7 7 8 8 8 8 9 9 9 10 10 11 11 12 12 11 11 12 12 11 12 12 12 12 12 13 12 12 13 13
6 6 6 6 6 6 6 6 7 7 7 7 7 8 8 9 9 9 9 9 9 10 9 9 11 11 11 12 12 12 12 12 12 12 12 12 12 13 13 13 13 14 14
7 6 6 6 6 6 6 6 7 8 7 8 8 8 9 9 10 10 10 10 10 10 10 10 11 11 11 12 12 12 12 12 12 12 12 12 13 13 14 14 14 15 15
7 6 6 6 7 7 7 7 7 8 8 8 9 9 9 10 10 10 10 11 11 11 11 11 11 11 11 12 12 12 12 12 12 12 12 12 12 13 14 14 14 14 15
7 7 7 7 7 8 8 8 8 8 8 8 9 9 9 10 10 10 10 11 11 11 12 12 12 11 11 11 11 12 13 12 12 12 12 12 13 13 13 13 13 14 13
7 7 7 8 8 8 8 9 9 8 9 9 9 9 10 10 10 10 10 11 11 12 12 12 11 11 12 12 12 12 12 13 13 13 13 13 13 13 13 13 13 13 13
8 8 8 8 9 9 8 9 9 9 9 9 9 10 10 10 10 10 10 10 11 11 11 12 12 12 12 12 12 12 12 13 13 13 13 13 13 13 13 13 13 13 14
8 9 8 9 9 9 8 9 9 9 9 10 10 10 10 11 10 10 10 10 11 11 11 11 12 13 12 12 12 12 13 13 13 13 13 13 13 13 13 13 13 13 14
9 9 9 9 9 10 9 9 9 10 10 10 11 11 11 11 11 11 11 11 11 11 11 12 12 13 12 12 12 12 12 12 13 13 14 13 13 14 14 14 13 13 14
9 10 10 9 9 10 10 10 10 11 11 11 11 12 12 12 12 12 12 12 12 12 12 12 12 13 12 12 12 12 13 12 13 13 13 13 13 14 14 14 14 14 14
10 10 10 10 10 10 11 11 11 11 12 12 12 12 12 12 13 12 12 12 12 12 12 12 12 13 12 12 13 13 13 13 14 14 14 14 14 14 14 15 15 15 15
11 11 11 11 11 11 11 11 11 12 13 13 12 12 12 13 12 12 12 13 13 13 13 12 12 12 13 13 13 13 14 14 15 15 15 15 15 15 16 16 16 15 15
13 12 12 12 13 13 13 13 12 13 13 13 13 12 12 13 13 12 12 12 12 12 13 12 12 13 13 14 14 14 14 14 15 15 15 15 15 15 15 16 16 16 16
14 14 13 14 14 14 14 14 14 14 14 14 13 12 12 13 13 13 12 12 12 12 13 13 13 14 14 14 14 15 15 15 15 15 16 16 16 16 16 17 17 17 17
15 14 14 14 14 15 15 14 15 15 15 15 14 13 13 14 14 14 13 13 12 13 13 13 14 14 14 15 15 15 15 15 16 16 16 16 17 17 18 18 17 17 18
15 15 15 15 15 16 15 15 15 16 16 15 15 14 15 15 15 15 14 14 14 14 14 14 14 15 15 16 16 16 17 17 16 16 17 17 17 18 19 19 19 19 19
Wind_Direction
276 299 313 308 314 315 314 312 319 312 302 292 277 262 254 253 254 260 264 261 261 265 261 253 254 246 252 259 260 244 225 225 229 226 223 218 217 213 211 213 215 219 218
280 287 296 302 311 320 318 317 311 305 297 289 282 269 259 259 262 262 264 259 260 264 265 266 262 252 249 257 257 252 240 229 232 227 228 225 225 220 217 221 224 226 227
277 283 291 292 298 305 309 308 302 301 297 288 286 281 263 257 260 266 267 266 268 266 264 264 257 250 246 251 252 255 248 241 237 230 227 234 232 227 225 227 232 233 232
273 273 281 283 285 294 299 299 303 301 296 291 290 285 270 264 262 267 272 270 272 271 266 267 264 259 252 255 256 256 256 252 250 244 238 238 237 236 234 236 238 241 239
273 273 275 274 279 288 292 295 296 299 298 296 292 286 276 271 268 267 270 272 274 274 273 271 270 271 261 257 256 257 258 256 253 249 247 245 243 241 241 242 244 245 242
285 281 275 274 276 278 281 287 290 293 296 295 293 289 279 270 264 263 268 270 272 273 272 272 272 273 269 264 260 257 254 254 254 253 249 249 249 246 243 242 243 246 246
289 287 286 278 276 278 281 282 290 291 294 293 292 286 279 270 265 262 264 268 269 271 274 273 269 269 269 265 262 260 258 258 258 254 252 254 251 249 245 243 245 247 247
289 290 288 282 279 285 283 281 283 286 288 287 287 286 281 273 270 270 267 265 267 266 266 268 268 266 267 264 262 260 259 260 258 255 253 254 254 250 244 244 247 250 250
288 287 284 282 280 281 279 279 280 281 280 281 281 281 279 274 270 268 268 270 269 269 266 265 265 264 266 265 264 262 259 260 259 256 254 252 251 249 247 247 250 251 252
296 292 284 280 278 278 280 279 277 279 284 281 279 278 276 274 269 267 267 268 268 270 269 267 265 263 264 266 266 262 259 258 259 254 253 253 252 249 249 250 251 252 252
300 295 289 285 282 279 277 278 276 277 283 287 284 279 277 276 273 269 267 266 267 269 270 267 264 264 263 264 263 261 260 257 257 255 256 255 253 252 252 253 253 253 252
302 296 287 286 285 278 272 276 277 278 281 283 284 281 278 277 274 269 267 266 266 265 266 266 263 264 264 261 260 261 260 258 256 256 258 256 253 254 256 256 254 252 251
305 299 294 282 279 278 273 275 278 277 280 282 283 281 280 280 279 274 267 265 264 264 264 267 270 266 264 263 264 263 259 259 257 257 257 255 254 253 255 256 254 253 251
303 294 293 289 279 276 276 276 279 280 281 281 283 282 281 282 283 280 273 267 266 266 265 267 270 270 267 265 265 261 259 259 257 256 258 259 257 255 255 256 255 254 252
305 296 293 290 287 280 274 275 278 281 281 282 283 280 280 281 282 281 276 270 269 269 270 269 270 266 265 265 264 261 258 258 255 255 259 260 259 256 255 256 252 253 255
312 303 294 289 285 282 275 272 272 276 280 282 283 281 280 280 282 283 280 274 270 269 270 270 268 267 266 264 265 263 259 259 258 257 258 258 259 260 260 257 256 256 256
311 307 299 294 288 285 281 278 273 275 279 281 282 282 281 280 281 283 281 278 273 270 268 268 269 269 268 264 265 264 260 259 258 257 258 259 260 261 260 259 258 259 258
311 306 301 297 293 288 285 281 276 275 277 280 281 282 281 281 280 281 281 279 274 270 271 271 271 269 270 267 265 263 260 258 258 259 260 261 261 261 261 259 259 258 257
308 304 299 296 292 289 284 280 277 277 277 278 279 278 279 280 279 279 280 278 276 274 274 276 274 272 272 269 265 263 261 259 259 260 262 262 262 261 259 258 259 258 258
304 301 298 294 292 289 286 284 280 278 277 278 279 277 276 277 277 278 280 277 275 273 275 279 277 272 270 267 265 264 262 261 260 261 260 262 265 264 258 257 258 257 259
298 296 297 296 293 291 289 287 285 281 279 279 279 279 278 280 280 278 279 278 275 273 274 278 277 272 269 269 266 264 262 261 261 261 259 261 263 264 261 258 257 256 256
295 293 293 294 292 290 290 290 288 285 281 279 279 279 277 279 278 276 276 277 276 276 274 275 273 272 270 269 267 266 263 262 262 263 260 261 264 265 263 258 256 259 256
293 292 292 293 292 289 287 288 289 288 284 282 280 276 277 281 279 273 273 273 274 274 273 273 271 272 272 270 268 268 267 265 265 265 264 264 265 265 263 261 260 261 259
291 290 291 292 294 291 289 288 286 287 285 283 280 275 275 280 281 274 273 272 273 273 274 273 272 272 271 270 268 268 268 267 265 263 264 264 264 264 262 262 259 259 258
290 289 291 293 294 294 292 290 285 284 284 281 278 274 275 277 278 276 273 274 275 275 276 275 275 274 274 271 269 269 268 268 266 266 267 266 265 264 264 264 263 260 257
289 289 291 293 294 294 293 290 288 285 283 282 277 276 276 276 276 278 277 275 275 275 275 275 277 276 274 272 270 269 270 270 269 269 268 266 265 264 263 264 266 263 258
Height
5856 5856 5856 5856 5856 5856 5856 5856 5856 5855 5856 5856 5856 5856 5857 5857 5858 5858 5859 5859 5860 5860 5860 5860 5861 5862 5863 5863 5864 5865 5865 5867 5868 5868 5869 5870 5871 5872 5874 5875 5876 5877 5878
5855 5855 5855 5855 5855 5855 5855 5855 5855 5855 5855 5855 5855 5856 5856 5857 5857 5857 5858 5858 5859 5859 5860 5860 5861 5861 5862 5863 5864 5864 5865 5866 5866 5867 5868 5869 5870 5871 5872 5874 5875 5876 5877
5855 5855 5855 5855 5855 5855 5854 5854 5854 5854 5854 5854 5855 5855 5855 5856 5856 5857 5857 5857 5858 5858 5859 5860 5860 5860 5861 5862 5862 5863 5864 5865 5865 5866 5867 5868 5869 5870 5871 5872 5873 5874 5875
5854 5854 5854 5854 5854 5854 5854 5854 5853 5853 5853 5854 5854 5854 5854 5855 5855 5856 5856 5856 5857 5857 5858 5858 5859 5859 5860 5861 5861 5862 5863 5863 5864 5865 5866 5867 5867 5868 5869 5870 5871 5872 5873
5854 5854 5854 5853 5853 5853 5853 5853 5853 5853 5853 5853 5853 5853 5853 5854 5854 5855 5855 5855 5856 5856 5857 5857 5858 5858 5859 5859 5860 5860 5861 5862 5863 5863 5864 5865 5866 5867 5868 5868 5869 5870 5871
5853 5853 5853 5852 5852 5852 5852 5852 5852 5852 5852 5852 5852 5852 5852 5852 5853 5853 5854 5854 5855 5855 5856 5856 5857 5857 5857 5858 5858 5859 5859 5860 5861 5862 5862 5863 5864 5865 5865 5866 5867 5868 5869
5852 5852 5852 5851 5851 5851 5851 5851 5851 5851 5851 5851 5851 5851 5851 5851 5852 5852 5853 5853 5853 5854 5854 5854 5855 5855 5856 5856 5856 5857 5857 5858 5858 5859 5860 5861 5861 5862 5863 5864 5865 5866 5866
5851 5851 5850 5850 5850 5850 5850 5850 5850 5850 5850 5850 5850 5849 5849 5850 5850 5850 5851 5851 5852 5852 5852 5853 5853 5853 5854 5854 5854 5855 5855 5856 5856 5857 5858 5858 5859 5860 5860 5861 5862 5863 5864
5850 5850 5849 5849 5849 5849 5849 5848 5848 5848 5848 5848 5848 5848 5848 5848 5848 5849 5849 5850 5850 5850 5850 5851 5851 5851 5851 5852 5852 5852 5853 5853 5854 5855 5855 5856 5857 5857 5858 5859 5860 5860 5861
5849 5848 5848 5848 5848 5848 5848 5847 5847 5847 5847 5847 5847 5847 5847 5847 5847 5847 5847 5848 5848 5848 5848 5848 5849 5849 5849 5849 5850 5850 5850 5851 5851 5852 5852 5853 5854 5855 5855 5856 5857 5858 5858
5847 5847 5847 5846 5846 5846 5846 5846 5846 5846 5846 5846 5845 5845 5845 5845 5845 5845 5845 5846 5846 5846 5846 5846 5846 5846 5847 5847 5847 5847 5848 5848 5849 5849 5850 5850 5851 5851 5852 5853 5854 5854 5855
5846 5845 5845 5845 5845 5845 5844 5845 5844 5844 5844 5844 5844 5844 5844 5843 5843 5843 5843 5843 5843 5843 5843 5843 5843 5844 5844 5844 5844 5844 5845 5845 5846 5847 5847 5847 5848 5849 5849 5850 5851 5851 5852
5845 5844 5844 5843 5843 5843 5843 5843 5843 5842 5842 5842 5842 5842 5842 5841 5841 5841 5841 5841 5841 5841 5841 5841 5841 5841 5841 5841 5841 5841 5842 5842 5843 5844 5844 5845 5845 5846 5846 5847 5848 5848 5849
5844 5843 5842 5842 5841 5841 5841 5841 5841 5840 5840 5840 5840 5840 5839 5839 5839 5839 5839 5838 5838 5838 5838 5838 5838 5838 5838 5838 5838 5839 5839 5840 5840 5841 5841 5842 5842 5843 5843 5844 5845 5845 5846
5842 5841 5840 5840 5840 5839 5839 5839 5839 5838 5838 5838 5838 5838 5837 5837 5836 5836 5836 5836 5836 5835 5835 5835 5835 5835 5835 5835 5836 5836 5836 5837 5837 5838 5838 5839 5839 5840 5840 5841 5841 5842 5843
5841 5840 5839 5838 5837 5837 5837 5837 5836 5836 5836 5836 5835 5835 5835 5834 5834 5834 5833 5833 5833 5833 5832 5832 5832 5832 5832 5833 5833 5833 5833 5834 5834 5834 5835 5835 5836 5836 5837 5838 5838 5839 5840
5839 5838 5837 5836 5835 5835 5834 5834 5834 5834 5833 5833 5833 5832 5832 5832 5831 5831 5831 5830 5830 5830 5830 5829 5829 5829 5829 5829 5830 5830 5830 5830 5831 5831 5832 5832 5833 5833 5834 5834 5835 5836 5836
5837 5836 5835 5834 5833 5833 5832 5832 5831 5831 5831 5831 5830 5830 5829 5829 5829 5828 5828 5827 5827 5827 5827 5826 5826 5826 5826 5826 5826 5827 5827 5827 5828 5828 5829 5829 5830 5830 5830 5831 5832 5833 5833
5835 5834 5833 5832 5831 5830 5830 5829 5829 5828 5828 5828 5827 5827 5826 5826 5826 5825 5825 5824 5824 5824 5824 5823 5823 5823 5823 5823 5823 5823 5824 5824 5824 5825 5825 5826 5826 5827 5827 5828 5829 5829 5830
5833 5832 5831 5830 5829 5828 5827 5827 5826 5826 5825 5825 5824 5823 5823 5823 5822 5822 5822 5821 5821 5821 5821 5820 5820 5820 5820 5820 5820 5820 5820 5821 5821 5821 5822 5822 5823 5823 5824 5825 5825 5826 5827
5831 5829 5828 5827 5826 5826 5825 5824 5823 5822 5822 5821 5821 5820 5820 5819 5819 5819 5818 5818 5818 5818 5817 5817 5817 5817 5816 5816 5817 5817 5817 5817 5817 5818 5818 5819 5819 5819 5820 5821 5822 5823 5823
5828 5827 5826 5825 5824 5823 5822 5821 5820 5819 5818 5818 5817 5817 5816 5816 5815 5815 5815 5815 5814 5814 5814 5814 5814 5813 5813 5813 5813 5813 5814 5814 5814 5814 5815 5815 5815 5816 5816 5817 5817 5818 5819
5825 5824 5823 5821 5820 5819 5818 5818 5817 5816 5815 5814 5814 5813 5813 5813 5812 5812 5811 5811 5811 5811 5810 5810 5810 5810 5810 5809 5809 5810 5810 5810 5810 5811 5811 5811 5811 5812 5812 5813 5814 5814 5815
5821 5820 5819 5818 5817 5815 5814 5814 5813 5812 5811 5811 5810 5810 5809 5809 5809 5808 5808 5807 5807 5807 5807 5806 5806 5806 5806 5806 5806 5806 5806 5806 5806 5807 5807 5807 5807 5808 5808 5809 5809 5810 5811
5818 5816 5815 5814 5812 5811 5810 5809 5808 5808 5807 5807 5806 5806 5806 5805 5805 5804 5804 5804 5803 5803 5803 5802 5802 5802 5802 5802 5802 5802 5801 5801 5802 5802 5803 5803 5803 5803 5804 5804 5805 5806 5807
5814 5812 5811 5810 5808 5807 5806 5805 5804 5803 5803 5802 5802 5802 5802 5801 5801 5800 5800 5800 5799 5799 5799 5798 5798 5798 5797 5797 5797 5797 5797 5797 5797 5797 5798 5798 5799 5799 5799 5800 5800 5801 5801